SCP
0 0 0 0 0 0 0 0 0 0 0 0 0 0 0 0 0 0 0 0 0 0 0 0 0 0 0 0 0 0 0 0 0 0 0 0 0 0 0 0 0 0 0
0 0 1 0 0 0 0 0 0 0 0 0 0 0 0 0 0 0 0 0 0 0 0 0 0 0 0 0 0 0 0 0 0 0 0 0 0 0 0 0 0 0 0
1 1 1 1 1 0 0 0 0 0 0 0 0 0 0 0 0 0 0 0 0 0 0 0 0 0 0 0 0 0 0 0 0 0 0 0 0 0 0 0 0 0 0
2 1 1 1 1 1 0 0 0 0 0 0 0 0 0 0 0 0 0 0 0 0 0 0 0 0 0 0 0 0 0 0 0 0 0 0 0 0 0 0 0 0 0
1 2 2 1 1 1 1 1 0 0 0 0 0 0 0 0 0 0 0 0 0 0 0 0 0 0 0 0 0 0 0 0 0 0 0 0 0 0 0 0 0 0 0
1 1 1 1 1 1 1 0 0 0 0 0 0 0 0 0 0 0 0 0 0 0 0 0 0 0 0 0 0 0 0 0 0 0 0 0 0 0 0 0 0 0 0
0 0 1 1 1 1 1 1 0 0 0 0 0 0 0 0 0 0 0 0 0 0 0 0 0 0 0 0 0 0 0 0 0 0 0 0 0 0 0 0 0 0 0
0 0 1 1 1 1 0 0 1 1 0 0 0 0 0 0 0 0 0 0 0 0 0 0 0 0 0 0 0 0 0 0 0 0 0 0 0 0 0 0 0 0 0
0 0 0 0 1 1 1 0 0 1 1 0 0 0 0 0 0 0 0 0 0 0 0 0 0 0 0 0 0 0 0 0 0 0 0 0 0 0 0 0 0 0 0
0 0 0 0 1 1 1 1 1 1 1 0 0 0 0 0 0 0 0 0 0 0 0 0 0 0 0 0 0 0 0 0 0 0 0 0 0 0 0 0 0 0 0
0 0 0 0 0 0 0 0 0 0 0 0 0 0 0 0 0 0 0 0 0 0 0 0 0 0 0 0 0 0 0 0 0 0 0 0 0 0 0 0 0 0 0
0 0 0 0 0 0 0 0 0 0 0 0 0 0 0 0 0 0 0 0 0 0 0 0 0 0 0 0 0 0 0 0 0 0 0 0 0 0 0 0 0 0 0
0 0 0 0 0 0 0 0 0 0 0 0 0 0 0 0 0 0 0 0 0 0 0 0 0 0 0 0 0 0 0 0 0 0 0 0 0 0 0 0 0 0 0
0 0 0 0 0 0 0 0 0 0 0 0 0 0 0 0 0 0 0 0 0 0 0 0 0 0 0 0 0 0 0 0 0 0 0 0 0 0 0 0 0 0 0
0 0 0 0 0 0 0 0 0 0 0 0 0 0 0 0 0 0 0 0 0 0 0 0 0 0 0 0 0 0 0 0 0 0 0 0 0 0 0 0 0 0 0
0 0 0 0 -0 0 0 0 0 0 0 0 0 0 0 0 0 0 0 0 0 0 0 0 0 0 0 0 0 0 0 0 0 0 0 0 0 0 0 0 0 0 0
0 -0 -0 0 0 0 0 0 0 0 0 0 0 0 0 0 0 0 0 0 0 0 0 0 0 0 0 0 0 0 0 0 0 0 0 0 0 0 0 0 0 0 0
0 0 0 0 0 0 0 -0 -0 0 0 0 0 0 0 0 0 0 0 0 0 0 0 0 0 0 0 0 0 0 0 0 0 0 0 0 0 0 0 0 0 0 0
0 0 0 0 0 0 0 -0 0 0 0 0 0 0 0 0 0 0 0 0 0 0 0 0 0 0 0 0 0 0 0 0 0 0 0 0 0 0 0 0 0 0 0
0 0 0 0 0 0 0 0 0 0 0 0 0 0 0 0 0 0 0 0 0 0 0 0 0 0 0 0 0 0 0 0 0 0 0 0 0 0 0 0 0 0 0
0 0 0 0 0 0 0 0 0 0 0 0 0 0 0 0 0 0 0 0 0 0 0 0 0 0 0 0 0 0 0 0 0 0 0 0 0 0 0 0 0 0 0
0 0 0 0 0 0 0 0 0 0 0 0 0 0 0 0 0 0 0 0 0 0 0 0 0 0 0 0 0 0 0 0 0 0 0 0 0 0 0 0 0 0 0
0 0 0 0 0 0 0 0 0 0 0 0 0 0 0 0 0 0 0 0 -0 0 0 0 0 0 0 0 0 0 0 0 0 0 0 0 0 0 0 0 0 0 0
0 0 0 0 0 0 0 0 0 0 0 0 0 0 0 0 0 0 0 0 0 0 0 0 0 0 0 0 0 0 0 0 0 0 0 0 0 0 0 0 0 0 0
0 0 0 0 0 0 0 0 0 0 0 0 0 0 0 0 0 0 0 0 0 0 0 0 0 0 0 0 0 0 0 0 0 0 0 0 0 0 0 0 0 0 0
0 0 0 0 0 0 0 0 0 0 0 0 0 0 0 0 0 0 0 0 0 0 0 0 0 0 0 0 0 0 0 0 0 0 0 0 0 0 0 0 0 0 0
Wind_Speed_500mb
31 38 41 43 45 46 43 45 34 38 39 41 46 41 32 35 51 48 46 50 50 53 49 44 38 35 31 28 26 24 24 23 22 21 19 18 17 16 17 17 19 16 11
23 32 39 49 52 48 45 42 35 38 38 35 40 48 42 39 50 51 52 51 53 56 51 48 44 41 37 34 32 30 29 27 25 23 22 21 19 19 18 18 15 14 14
35 36 41 47 56 51 50 48 48 49 50 43 41 45 51 51 49 56 63 57 58 62 55 49 48 47 42 39 37 36 34 32 29 25 23 22 21 20 19 16 16 15 12
42 42 46 51 56 60 54 56 56 61 62 59 54 52 52 61 65 64 66 70 66 69 64 58 54 53 51 44 41 40 38 35 33 31 29 28 26 24 21 19 17 15 12
42 52 52 53 53 59 60 55 57 59 66 67 65 63 62 67 71 76 74 76 76 75 74 67 60 55 57 54 48 44 42 41 40 37 35 34 32 30 25 22 20 18 16
49 49 53 52 52 57 62 61 61 67 69 71 74 76 75 77 78 75 77 82 83 82 77 71 67 63 63 60 57 52 49 47 44 42 41 39 37 34 30 27 24 21 18
34 43 47 49 51 58 64 64 71 70 76 85 82 81 83 85 86 84 80 82 90 88 86 80 75 69 67 63 62 58 52 51 49 46 45 45 42 39 36 33 30 26 23
28 33 40 48 49 51 58 65 63 68 82 86 89 81 63 83 84 86 87 89 94 94 94 90 82 79 73 69 70 63 57 54 51 51 50 48 46 43 41 38 37 34 28
35 39 48 49 54 58 60 63 68 72 73 74 82 84 34 45 55 87 96 97 99 100 102 98 90 85 83 75 74 71 64 61 56 53 51 50 47 46 42 39 37 37 33
51 52 58 56 53 51 59 66 67 68 75 74 83 86 99 82 33 28 70 100 101 99 101 105 97 91 90 84 80 73 73 71 61 58 55 54 53 50 46 41 38 35 36
52 54 53 54 60 58 56 54 59 66 76 68 89 70 96 114 105 75 53 71 89 103 106 110 107 100 99 94 87 79 74 79 74 69 63 57 53 50 47 46 39 36 36
51 46 54 55 57 60 59 58 59 60 61 66 66 62 70 66 81 85 81 76 90 101 114 110 111 107 104 103 95 88 83 87 79 82 76 73 63 57 52 49 44 39 37
52 55 58 59 65 65 60 52 47 44 42 44 49 60 61 62 79 72 65 55 61 79 86 113 106 107 108 108 105 99 96 85 89 90 79 82 71 64 58 52 49 44 40
57 60 59 59 60 64 63 54 48 42 41 39 38 37 40 45 55 55 68 66 56 65 97 97 112 108 106 108 110 107 96 90 89 96 93 83 73 64 62 57 53 52 45
55 57 61 65 64 65 66 67 63 58 50 50 46 41 39 44 45 48 49 50 67 42 71 90 102 118 119 114 116 117 103 98 97 97 95 91 75 69 70 65 58 57 54
57 57 54 60 75 72 69 71 54 58 57 60 50 47 42 40 45 48 51 47 59 77 82 69 103 108 115 130 126 115 117 108 108 106 94 92 83 83 77 72 67 66 58
65 68 72 73 65 61 72 80 62 49 49 52 59 56 52 47 48 49 53 53 54 74 84 87 72 87 106 114 129 121 111 110 114 108 96 91 90 85 81 79 78 72 57
70 71 70 73 68 65 68 56 50 53 45 54 58 57 59 51 54 51 53 56 57 64 85 92 83 83 114 116 120 129 118 108 113 110 102 94 92 87 84 86 79 68 58
66 68 70 76 70 66 66 60 54 35 34 54 63 59 57 52 56 61 59 62 62 67 79 89 87 76 101 113 109 113 112 110 113 106 96 92 91 84 90 83 78 63 60
76 80 76 75 73 74 56 56 45 47 43 61 76 68 62 54 54 60 64 68 65 69 79 82 89 74 88 100 112 116 105 111 110 98 91 80 93 88 83 86 75 64 61
76 76 77 79 75 73 54 48 45 50 51 51 66 76 66 51 52 51 61 70 68 69 73 69 82 75 90 100 105 100 102 107 99 103 92 98 97 86 88 86 71 66 57
59 63 71 65 64 40 42 44 56 61 56 63 65 72 69 53 49 48 55 64 56 56 60 56 68 77 86 106 109 114 107 107 88 96 104 103 94 92 88 83 71 69 62
66 60 54 53 52 59 63 71 62 53 67 64 62 68 64 53 47 49 55 54 38 41 49 66 64 71 90 106 113 110 116 117 99 104 106 97 92 88 87 77 74 63 52
70 66 72 59 50 52 60 61 62 62 64 61 57 59 56 49 45 49 52 43 35 41 52 44 67 77 85 97 106 112 117 93 77 84 105 77 84 82 83 71 61 57 52
71 68 63 66 71 83 80 76 69 69 67 63 58 56 50 44 44 43 44 43 37 44 34 35 42 57 71 81 98 92 97 100 72 77 89 72 82 77 77 64 59 57 46
54 58 65 66 70 75 75 65 60 64 65 59 54 48 43 39 41 38 37 34 26 26 34 23 29 34 47 65 75 96 104 93 83 65 73 65 74 76 57 65 59 55 51
Wind_Direction_500mb
250 242 250 255 263 269 259 264 275 270 269 262 253 246 231 222 229 239 241 251 263 270 275 274 260 253 245 240 238 236 232 232 233 233 228 225 222 220 217 214 220 230 247
275 246 257 259 261 269 266 267 267 274 276 270 252 244 244 243 233 243 242 249 258 264 272 274 261 252 243 236 232 230 229 228 229 225 225 220 218 216 214 217 221 218 218
267 260 258 267 270 270 270 268 265 266 264 262 261 246 243 244 243 245 243 249 256 261 264 267 263 256 246 237 230 228 228 226 226 227 226 222 218 214 213 207 210 208 200
251 254 263 274 273 263 261 265 261 263 259 258 256 258 247 240 244 242 248 248 251 258 261 262 263 258 248 239 234 230 227 225 227 224 221 217 215 214 212 207 204 200 192
246 251 258 264 267 261 258 253 254 255 258 248 257 260 257 254 249 249 249 248 251 253 256 260 260 256 248 241 231 229 228 225 225 223 219 215 214 212 206 203 200 196 195
269 268 265 264 264 263 263 260 258 248 252 253 260 261 254 252 253 253 252 247 248 253 255 256 256 254 250 243 238 228 228 227 222 220 218 213 210 209 205 201 200 200 199
266 267 269 274 270 271 267 266 261 259 256 255 254 257 254 251 253 252 251 249 247 248 249 251 252 254 248 243 234 227 217 218 214 212 211 211 207 208 206 202 199 198 198
295 289 276 270 269 273 272 267 267 270 263 252 249 246 247 248 244 245 247 246 243 246 245 247 246 249 250 247 240 226 212 210 206 206 207 207 206 204 205 203 201 198 198
296 299 293 283 274 273 268 268 270 272 273 271 265 245 237 237 245 245 240 242 240 238 242 245 243 243 246 246 242 233 218 212 206 207 203 203 200 200 201 198 201 200 198
292 297 298 293 289 284 272 273 276 271 272 272 270 254 251 251 238 254 236 235 233 241 239 241 241 244 244 242 239 237 232 208 209 210 208 203 199 195 199 195 196 194 195
287 296 290 291 293 290 286 278 275 272 271 275 256 275 257 244 245 250 242 233 236 237 238 238 240 240 242 241 235 233 231 224 211 214 213 209 203 195 192 191 191 190 192
303 295 291 292 282 286 285 283 281 278 279 271 283 272 269 265 245 245 244 250 244 239 233 233 239 235 235 237 234 236 235 222 221 215 215 217 202 195 193 191 188 188 187
303 303 296 295 294 293 290 289 289 291 290 293 286 282 270 274 273 267 253 249 242 233 233 231 232 234 232 232 236 238 229 234 220 221 230 213 204 197 195 190 187 188 188
300 296 291 292 293 293 288 288 285 294 292 295 301 308 299 292 280 285 284 265 250 243 235 231 231 231 227 232 237 232 233 227 224 216 213 210 205 201 197 194 188 188 188
301 299 296 291 291 290 288 289 283 285 292 294 291 288 289 295 300 302 293 282 273 253 227 231 232 234 232 233 229 232 232 224 220 218 217 214 208 206 202 195 195 195 193
317 311 315 316 309 305 302 297 296 287 285 300 295 294 289 292 297 301 302 289 273 265 256 250 236 233 237 231 230 227 224 223 217 214 214 214 214 203 203 200 200 200 202
307 311 316 320 318 315 308 298 318 293 299 297 298 289 292 291 294 292 298 296 281 272 263 260 253 242 233 232 229 225 225 216 212 211 215 211 212 207 207 205 205 208 211
304 308 311 313 318 313 317 306 298 283 298 301 290 294 295 296 292 291 296 296 283 272 263 261 257 240 230 228 232 229 218 211 211 207 209 208 211 210 211 210 212 213 213
299 300 302 302 307 306 302 304 286 293 288 301 293 290 291 293 293 293 291 296 288 276 269 261 255 246 228 223 219 218 212 206 206 204 204 204 218 213 210 217 218 214 215
300 300 297 299 297 299 295 299 301 297 300 286 301 299 293 292 293 287 283 297 291 275 265 261 251 241 213 212 216 207 196 201 199 200 202 218 212 212 217 220 217 213 210
297 297 298 297 294 293 290 292 297 297 287 285 286 297 294 290 286 287 287 292 285 275 268 264 244 221 204 200 198 193 195 197 199 204 211 202 202 211 213 220 209 204 202
299 306 301 296 296 274 281 294 315 314 300 289 290 294 293 299 293 295 290 291 279 273 271 264 229 205 193 202 202 202 193 192 183 200 206 198 205 205 216 210 202 205 205
299 293 299 298 295 294 297 292 299 300 300 302 295 291 293 293 294 299 295 294 278 275 270 261 243 216 207 204 206 198 200 204 195 197 197 193 201 206 213 207 205 206 223
299 303 295 293 300 305 302 299 296 297 299 304 298 292 289 291 294 292 295 282 270 271 276 272 248 235 230 217 218 220 207 191 193 188 197 186 199 205 207 208 209 225 226
304 301 301 305 296 297 297 291 293 296 298 302 301 295 288 291 295 289 289 278 275 268 259 260 250 238 220 207 203 194 187 186 179 183 191 195 190 199 209 214 220 222 219
307 299 299 302 299 295 293 291 290 291 291 292 291 292 286 293 289 290 278 270 265 259 244 244 232 217 208 202 199 204 197 183 178 160 185 190 192 199 199 214 214 211 212
Wind_Speed_850mb
31 38 41 43 45 46 43 45 34 38 39 41 46 41 32 35 51 48 46 50 50 53 49 44 38 35 31 28 26 24 24 23 22 21 19 18 17 16 17 17 19 16 11
23 32 39 49 52 48 45 42 35 38 38 35 40 48 42 39 50 51 52 51 53 56 51 48 44 41 37 34 32 30 29 27 25 23 22 21 19 19 18 18 15 14 14
35 36 41 47 56 51 50 48 48 49 50 43 41 45 51 51 49 56 63 57 58 62 55 49 48 47 42 39 37 36 34 32 29 25 23 22 21 20 19 16 16 15 12
42 42 46 51 56 60 54 56 56 61 62 59 54 52 52 61 65 64 66 70 66 69 64 58 54 53 51 44 41 40 38 35 33 31 29 28 26 24 21 19 17 15 12
42 52 52 53 53 59 60 55 57 59 66 67 65 63 62 67 71 76 74 76 76 75 74 67 60 55 57 54 48 44 42 41 40 37 35 34 32 30 25 22 20 18 16
49 49 53 52 52 57 62 61 61 67 69 71 74 76 75 77 78 75 77 82 83 82 77 71 67 63 63 60 57 52 49 47 44 42 41 39 37 34 30 27 24 21 18
34 43 47 49 51 58 64 64 71 70 76 85 82 81 83 85 86 84 80 82 90 88 86 80 75 69 67 63 62 58 52 51 49 46 45 45 42 39 36 33 30 26 23
28 33 40 48 49 51 58 65 63 68 82 86 89 81 63 83 84 86 87 89 94 94 94 90 82 79 73 69 70 63 57 54 51 51 50 48 46 43 41 38 37 34 28
35 39 48 49 54 58 60 63 68 72 73 74 82 84 34 45 55 87 96 97 99 100 102 98 90 85 83 75 74 71 64 61 56 53 51 50 47 46 42 39 37 37 33
51 52 58 56 53 51 59 66 67 68 75 74 83 86 99 82 33 28 70 100 101 99 101 105 97 91 90 84 80 73 73 71 61 58 55 54 53 50 46 41 38 35 36
52 54 53 54 60 58 56 54 59 66 76 68 89 70 96 114 105 75 53 71 89 103 106 110 107 100 99 94 87 79 74 79 74 69 63 57 53 50 47 46 39 36 36
51 46 54 55 57 60 59 58 59 60 61 66 66 62 70 66 81 85 81 76 90 101 114 110 111 107 104 103 95 88 83 87 79 82 76 73 63 57 52 49 44 39 37
52 55 58 59 65 65 60 52 47 44 42 44 49 60 61 62 79 72 65 55 61 79 86 113 106 107 108 108 105 99 96 85 89 90 79 82 71 64 58 52 49 44 40
57 60 59 59 60 64 63 54 48 42 41 39 38 37 40 45 55 55 68 66 56 65 97 97 112 108 106 108 110 107 96 90 89 96 93 83 73 64 62 57 53 52 45
55 57 61 65 64 65 66 67 63 58 50 50 46 41 39 44 45 48 49 50 67 42 71 90 102 118 119 114 116 117 103 98 97 97 95 91 75 69 70 65 58 57 54
57 57 54 60 75 72 69 71 54 58 57 60 50 47 42 40 45 48 51 47 59 77 82 69 103 108 115 130 126 115 117 108 108 106 94 92 83 83 77 72 67 66 58
65 68 72 73 65 61 72 80 62 49 49 52 59 56 52 47 48 49 53 53 54 74 84 87 72 87 106 114 129 121 111 110 114 108 96 91 90 85 81 79 78 72 57
70 71 70 73 68 65 68 56 50 53 45 54 58 57 59 51 54 51 53 56 57 64 85 92 83 83 114 116 120 129 118 108 113 110 102 94 92 87 84 86 79 68 58
66 68 70 76 70 66 66 60 54 35 34 54 63 59 57 52 56 61 59 62 62 67 79 89 87 76 101 113 109 113 112 110 113 106 96 92 91 84 90 83 78 63 60
76 80 76 75 73 74 56 56 45 47 43 61 76 68 62 54 54 60 64 68 65 69 79 82 89 74 88 100 112 116 105 111 110 98 91 80 93 88 83 86 75 64 61
76 76 77 79 75 73 54 48 45 50 51 51 66 76 66 51 52 51 61 70 68 69 73 69 82 75 90 100 105 100 102 107 99 103 92 98 97 86 88 86 71 66 57
59 63 71 65 64 40 42 44 56 61 56 63 65 72 69 53 49 48 55 64 56 56 60 56 68 77 86 106 109 114 107 107 88 96 104 103 94 92 88 83 71 69 62
66 60 54 53 52 59 63 71 62 53 67 64 62 68 64 53 47 49 55 54 38 41 49 66 64 71 90 106 113 110 116 117 99 104 106 97 92 88 87 77 74 63 52
70 66 72 59 50 52 60 61 62 62 64 61 57 59 56 49 45 49 52 43 35 41 52 44 67 77 85 97 106 112 117 93 77 84 105 77 84 82 83 71 61 57 52
71 68 63 66 71 83 80 76 69 69 67 63 58 56 50 44 44 43 44 43 37 44 34 35 42 57 71 81 98 92 97 100 72 77 89 72 82 77 77 64 59 57 46
54 58 65 66 70 75 75 65 60 64 65 59 54 48 43 39 41 38 37 34 26 26 34 23 29 34 47 65 75 96 104 93 83 65 73 65 74 76 57 65 59 55 51
Wind_Direction_850mb
250 242 250 255 263 269 259 264 275 270 269 262 253 246 231 222 229 239 241 251 263 270 275 274 260 253 245 240 238 236 232 232 233 233 228 225 222 220 217 214 220 230 247
275 246 257 259 261 269 266 267 267 274 276 270 252 244 244 243 233 243 242 249 258 264 272 274 261 252 243 236 232 230 229 228 229 225 225 220 218 216 214 217 221 218 218
267 260 258 267 270 270 270 268 265 266 264 262 261 246 243 244 243 245 243 249 256 261 264 267 263 256 246 237 230 228 228 226 226 227 226 222 218 214 213 207 210 208 200
251 254 263 274 273 263 261 265 261 263 259 258 256 258 247 240 244 242 248 248 251 258 261 262 263 258 248 239 234 230 227 225 227 224 221 217 215 214 212 207 204 200 192
246 251 258 264 267 261 258 253 254 255 258 248 257 260 257 254 249 249 249 248 251 253 256 260 260 256 248 241 231 229 228 225 225 223 219 215 214 212 206 203 200 196 195
269 268 265 264 264 263 263 260 258 248 252 253 260 261 254 252 253 253 252 247 248 253 255 256 256 254 250 243 238 228 228 227 222 220 218 213 210 209 205 201 200 200 199
266 267 269 274 270 271 267 266 261 259 256 255 254 257 254 251 253 252 251 249 247 248 249 251 252 254 248 243 234 227 217 218 214 212 211 211 207 208 206 202 199 198 198
295 289 276 270 269 273 272 267 267 270 263 252 249 246 247 248 244 245 247 246 243 246 245 247 246 249 250 247 240 226 212 210 206 206 207 207 206 204 205 203 201 198 198
296 299 293 283 274 273 268 268 270 272 273 271 265 245 237 237 245 245 240 242 240 238 242 245 243 243 246 246 242 233 218 212 206 207 203 203 200 200 201 198 201 200 198
292 297 298 293 289 284 272 273 276 271 272 272 270 254 251 251 238 254 236 235 233 241 239 241 241 244 244 242 239 237 232 208 209 210 208 203 199 195 199 195 196 194 195
287 296 290 291 293 290 286 278 275 272 271 275 256 275 257 244 245 250 242 233 236 237 238 238 240 240 242 241 235 233 231 224 211 214 213 209 203 195 192 191 191 190 192
303 295 291 292 282 286 285 283 281 278 279 271 283 272 269 265 245 245 244 250 244 239 233 233 239 235 235 237 234 236 235 222 221 215 215 217 202 195 193 191 188 188 187
303 303 296 295 294 293 290 289 289 291 290 293 286 282 270 274 273 267 253 249 242 233 233 231 232 234 232 232 236 238 229 234 220 221 230 213 204 197 195 190 187 188 188
300 296 291 292 293 293 288 288 285 294 292 295 301 308 299 292 280 285 284 265 250 243 235 231 231 231 227 232 237 232 233 227 224 216 213 210 205 201 197 194 188 188 188
301 299 296 291 291 290 288 289 283 285 292 294 291 288 289 295 300 302 293 282 273 253 227 231 232 234 232 233 229 232 232 224 220 218 217 214 208 206 202 195 195 195 193
317 311 315 316 309 305 302 297 296 287 285 300 295 294 289 292 297 301 302 289 273 265 256 250 236 233 237 231 230 227 224 223 217 214 214 214 214 203 203 200 200 200 202
307 311 316 320 318 315 308 298 318 293 299 297 298 289 292 291 294 292 298 296 281 272 263 260 253 242 233 232 229 225 225 216 212 211 215 211 212 207 207 205 205 208 211
304 308 311 313 318 313 317 306 298 283 298 301 290 294 295 296 292 291 296 296 283 272 263 261 257 240 230 228 232 229 218 211 211 207 209 208 211 210 211 210 212 213 213
299 300 302 302 307 306 302 304 286 293 288 301 293 290 291 293 293 293 291 296 288 276 269 261 255 246 228 223 219 218 212 206 206 204 204 204 218 213 210 217 218 214 215
300 300 297 299 297 299 295 299 301 297 300 286 301 299 293 292 293 287 283 297 291 275 265 261 251 241 213 212 216 207 196 201 199 200 202 218 212 212 217 220 217 213 210
297 297 298 297 294 293 290 292 297 297 287 285 286 297 294 290 286 287 287 292 285 275 268 264 244 221 204 200 198 193 195 197 199 204 211 202 202 211 213 220 209 204 202
299 306 301 296 296 274 281 294 315 314 300 289 290 294 293 299 293 295 290 291 279 273 271 264 229 205 193 202 202 202 193 192 183 200 206 198 205 205 216 210 202 205 205
299 293 299 298 295 294 297 292 299 300 300 302 295 291 293 293 294 299 295 294 278 275 270 261 243 216 207 204 206 198 200 204 195 197 197 193 201 206 213 207 205 206 223
299 303 295 293 300 305 302 299 296 297 299 304 298 292 289 291 294 292 295 282 270 271 276 272 248 235 230 217 218 220 207 191 193 188 197 186 199 205 207 208 209 225 226
304 301 301 305 296 297 297 291 293 296 298 302 301 295 288 291 295 289 289 278 275 268 259 260 250 238 220 207 203 194 187 186 179 183 191 195 190 199 209 214 220 222 219
307 299 299 302 299 295 293 291 290 291 291 292 291 292 286 293 289 290 278 270 265 259 244 244 232 217 208 202 199 204 197 183 178 160 185 190 192 199 199 214 214 211 212